AFR601 TFFF-TFFR

Flight info

Callsign AFR601
Flight time 0h 33m
Altitude 14000
Route DOM2R DOM DOM2S
Aircraft A320/M-SDE2E3FGIJ1RWY/HB1

Departure

Time 2026-04-27 15:06
Airport Martinique Aimé Césaire International Airport (TFFF)

Arrival

Time 2026-04-27 15:39
Airport Maryse Condé International Airport (TFFR)
Time Latitude Longitude Altitude Speed Heading
2026-04-27 14:33 14.59447 -60.99970 19 ft 0 kts
2026-04-27 14:54 14.59442 -60.99970 17 ft 2 kts
2026-04-27 14:54 14.59424 -60.99974 14 ft 3 kts 20°
2026-04-27 14:55 14.59405 -60.99981 22 ft 3 kts
2026-04-27 14:55 14.59388 -60.99983 21 ft 3 kts 354°
2026-04-27 14:55 14.59372 -60.99978 18 ft 3 kts 308°
2026-04-27 14:55 14.59365 -60.99962 21 ft 3 kts 267°
2026-04-27 14:56 14.59367 -60.99946 18 ft 1 kts 260°
2026-04-27 14:56 14.59367 -60.99945 18 ft 0 kts 260°
2026-04-27 15:01 14.59364 -60.99962 22 ft 5 kts 261°
2026-04-27 15:01 14.59359 -60.99993 18 ft 5 kts 260°
2026-04-27 15:01 14.59337 -61.00036 19 ft 6 kts 217°
2026-04-27 15:01 14.59300 -61.00040 19 ft 5 kts 173°
2026-04-27 15:02 14.59268 -61.00035 19 ft 6 kts 170°
2026-04-27 15:02 14.59219 -61.00026 18 ft 13 kts 170°
2026-04-27 15:02 14.59151 -61.00061 16 ft 11 kts 256°
2026-04-27 15:02 14.59131 -61.00176 17 ft 20 kts 261°
2026-04-27 15:03 14.59108 -61.00315 15 ft 19 kts 260°
2026-04-27 15:03 14.59084 -61.00457 14 ft 20 kts 260°
2026-04-27 15:03 14.59056 -61.00612 16 ft 26 kts 259°
2026-04-27 15:03 14.59027 -61.00785 21 ft 23 kts 260°
2026-04-27 15:04 14.59001 -61.00938 21 ft 23 kts 260°
2026-04-27 15:04 14.58977 -61.01102 22 ft 14 kts 282°
2026-04-27 15:04 14.58997 -61.01173 24 ft 7 kts 235°
2026-04-27 15:04 14.58966 -61.01164 24 ft 5 kts 119°
2026-04-27 15:05 14.58969 -61.01120 23 ft 8 kts 80°
2026-04-27 15:05 14.58992 -61.00987 21 ft 47 kts 81°
2026-04-27 15:05 14.59094 -61.00394 15 ft 117 kts 79°
2026-04-27 15:05 14.59238 -60.99408 251 ft 147 kts 82°
2026-04-27 15:06 14.59428 -60.98394 964 ft 145 kts 82°
2026-04-27 15:06 14.59618 -60.97371 1671 ft 145 kts 81°
2026-04-27 15:06 14.59799 -60.96349 2273 ft 145 kts 81°
2026-04-27 15:06 14.59974 -60.95315 2908 ft 146 kts 83°
2026-04-27 15:07 14.60152 -60.94253 3478 ft 157 kts 84°
2026-04-27 15:07 14.60349 -60.93063 3838 ft 179 kts 82°
2026-04-27 15:07 14.60577 -60.91705 4168 ft 205 kts 82°
2026-04-27 15:07 14.60848 -60.90172 4602 ft 230 kts 77°
2026-04-27 15:08 14.61696 -60.88688 5075 ft 259 kts 42°
2026-04-27 15:08 14.63371 -60.87948 5774 ft 278 kts
2026-04-27 15:08 14.65330 -60.88178 6596 ft 290 kts 345°
2026-04-27 15:08 14.67248 -60.88854 7457 ft 294 kts 341°
2026-04-27 15:09 14.69174 -60.89617 8330 ft 297 kts 341°
2026-04-27 15:09 14.71132 -60.90317 9270 ft 298 kts 343°
2026-04-27 15:09 14.73134 -60.90924 10138 ft 301 kts 345°
2026-04-27 15:09 14.75229 -60.91463 10567 ft 322 kts 347°
2026-04-27 15:10 14.77483 -60.91972 10983 ft 338 kts 348°
2026-04-27 15:10 14.79781 -60.92450 11667 ft 344 kts 349°
2026-04-27 15:10 14.82145 -60.92923 12393 ft 349 kts 349°
2026-04-27 15:10 14.84544 -60.93401 13157 ft 352 kts 348°
2026-04-27 15:11 14.86971 -60.93889 13817 ft 356 kts 348°
2026-04-27 15:11 14.89408 -60.94385 14021 ft 358 kts 347°
2026-04-27 15:11 14.91831 -60.94882 14081 ft 348 kts 348°
2026-04-27 15:11 14.94139 -60.95523 14092 ft 341 kts 338°
2026-04-27 15:12 14.96256 -60.96599 14092 ft 339 kts 330°
2026-04-27 15:12 14.98328 -60.97761 14095 ft 339 kts 330°
2026-04-27 15:12 15.00370 -60.98904 14091 ft 338 kts 330°
2026-04-27 15:12 15.02439 -61.00061 14093 ft 337 kts 330°
2026-04-27 15:13 15.04498 -61.01212 14092 ft 337 kts 329°
2026-04-27 15:13 15.06557 -61.02365 14092 ft 336 kts 329°
2026-04-27 15:13 15.08615 -61.03517 14092 ft 336 kts 330°
2026-04-27 15:13 15.10676 -61.04667 14092 ft 336 kts 330°
2026-04-27 15:14 15.12737 -61.05817 14090 ft 337 kts 329°
2026-04-27 15:14 15.14765 -61.06953 14090 ft 337 kts 329°
2026-04-27 15:14 15.16830 -61.08108 14088 ft 337 kts 330°
2026-04-27 15:14 15.18894 -61.09261 14088 ft 337 kts 329°
2026-04-27 15:15 15.20966 -61.10421 14084 ft 338 kts 329°
2026-04-27 15:15 15.23036 -61.11579 14083 ft 338 kts 330°
2026-04-27 15:15 15.25103 -61.12736 14085 ft 338 kts 330°
2026-04-27 15:15 15.27172 -61.13895 14083 ft 338 kts 330°
2026-04-27 15:16 15.29241 -61.15053 14086 ft 338 kts 329°
2026-04-27 15:16 15.31312 -61.16212 14089 ft 338 kts 329°
2026-04-27 15:16 15.33352 -61.17357 14083 ft 338 kts 330°
2026-04-27 15:16 15.35416 -61.18517 14090 ft 338 kts 330°
2026-04-27 15:17 15.37481 -61.19675 14091 ft 338 kts 329°
2026-04-27 15:17 15.39544 -61.20831 14087 ft 337 kts 329°
2026-04-27 15:17 15.41607 -61.21987 14084 ft 337 kts 330°
2026-04-27 15:17 15.43668 -61.23143 14084 ft 337 kts 330°
2026-04-27 15:18 15.45730 -61.24299 14085 ft 337 kts 329°
2026-04-27 15:18 15.47789 -61.25456 14124 ft 337 kts 330°
2026-04-27 15:18 15.49816 -61.26596 14123 ft 337 kts 330°
2026-04-27 15:18 15.51875 -61.27753 14119 ft 337 kts 330°
2026-04-27 15:19 15.53918 -61.28940 14120 ft 336 kts 324°
2026-04-27 15:19 15.55715 -61.30465 14118 ft 333 kts 311°
2026-04-27 15:19 15.57184 -61.32314 14119 ft 332 kts 306°
2026-04-27 15:19 15.58601 -61.34196 14123 ft 332 kts 307°
2026-04-27 15:20 15.60028 -61.36079 14117 ft 332 kts 307°
2026-04-27 15:20 15.61439 -61.37936 14113 ft 332 kts 306°
2026-04-27 15:20 15.62871 -61.39818 14111 ft 332 kts 307°
2026-04-27 15:20 15.64302 -61.41703 14108 ft 333 kts 307°
2026-04-27 15:21 15.65735 -61.43589 14103 ft 333 kts 306°
2026-04-27 15:21 15.67169 -61.45478 14103 ft 333 kts 307°
2026-04-27 15:21 15.68603 -61.47369 14103 ft 333 kts 307°
2026-04-27 15:21 15.70037 -61.49259 14103 ft 333 kts 307°
2026-04-27 15:22 15.71471 -61.51151 14102 ft 333 kts 306°
2026-04-27 15:22 15.72885 -61.53017 14105 ft 333 kts 306°
2026-04-27 15:22 15.74315 -61.54907 14108 ft 333 kts 306°
2026-04-27 15:22 15.75744 -61.56795 14109 ft 332 kts 307°
2026-04-27 15:23 15.77172 -61.58683 14109 ft 332 kts 306°
2026-04-27 15:23 15.78594 -61.60568 14109 ft 332 kts 306°
2026-04-27 15:23 15.80018 -61.62457 14109 ft 332 kts 306°
2026-04-27 15:23 15.81444 -61.64345 14107 ft 332 kts 307°
2026-04-27 15:24 15.82872 -61.66233 14103 ft 332 kts 307°
2026-04-27 15:24 15.84298 -61.68123 14104 ft 332 kts 306°
2026-04-27 15:24 15.85706 -61.69987 14105 ft 332 kts 306°
2026-04-27 15:24 15.87133 -61.71873 14104 ft 332 kts 306°
2026-04-27 15:25 15.88559 -61.73761 14108 ft 332 kts 306°
2026-04-27 15:25 15.89983 -61.75650 14108 ft 332 kts 306°
2026-04-27 15:25 15.91408 -61.77538 14108 ft 332 kts 306°
2026-04-27 15:25 15.92830 -61.79421 14041 ft 329 kts 307°
2026-04-27 15:26 15.94226 -61.81268 13805 ft 322 kts 306°
2026-04-27 15:26 15.95598 -61.83087 13557 ft 317 kts 307°
2026-04-27 15:26 15.96937 -61.84864 13299 ft 316 kts 306°
2026-04-27 15:26 15.98289 -61.86660 13047 ft 315 kts 307°
2026-04-27 15:27 15.99639 -61.88453 12798 ft 315 kts 307°
2026-04-27 15:27 16.00992 -61.90236 12550 ft 314 kts 308°
2026-04-27 15:27 16.02618 -61.91748 12300 ft 315 kts 325°
2026-04-27 15:27 16.04581 -61.92724 11964 ft 314 kts 342°
2026-04-27 15:28 16.06745 -61.93081 11472 ft 318 kts 359°
2026-04-27 15:28 16.08908 -61.93055 11197 ft 313 kts
2026-04-27 15:28 16.11083 -61.93043 10788 ft 313 kts
2026-04-27 15:28 16.13253 -61.93044 10434 ft 311 kts 360°
2026-04-27 15:29 16.15407 -61.93049 10078 ft 309 kts
2026-04-27 15:29 16.17554 -61.93052 9672 ft 308 kts
2026-04-27 15:29 16.19682 -61.93055 9299 ft 305 kts
2026-04-27 15:29 16.21788 -61.93057 8780 ft 300 kts
2026-04-27 15:30 16.23873 -61.93058 8067 ft 298 kts
2026-04-27 15:30 16.25931 -61.93058 7399 ft 293 kts
2026-04-27 15:30 16.27887 -61.92739 6731 ft 286 kts 24°
2026-04-27 15:30 16.29612 -61.91751 6001 ft 282 kts 39°
2026-04-27 15:31 16.30986 -61.90336 5262 ft 275 kts 57°
2026-04-27 15:31 16.31912 -61.88636 4645 ft 265 kts 72°
2026-04-27 15:31 16.32347 -61.86851 4484 ft 246 kts 84°
2026-04-27 15:31 16.32381 -61.85135 4427 ft 229 kts 96°
2026-04-27 15:32 16.32143 -61.83550 4342 ft 215 kts 101°
2026-04-27 15:32 16.31877 -61.82077 4244 ft 204 kts 102°
2026-04-27 15:32 16.31614 -61.80663 4135 ft 195 kts 102°
2026-04-27 15:32 16.31357 -61.79289 4024 ft 192 kts 101°
2026-04-27 15:33 16.31108 -61.77949 3937 ft 183 kts 102°
2026-04-27 15:33 16.30872 -61.76677 3814 ft 178 kts 102°
2026-04-27 15:33 16.30635 -61.75414 3706 ft 177 kts 102°
2026-04-27 15:33 16.30398 -61.74141 3632 ft 180 kts 102°
2026-04-27 15:34 16.30167 -61.72892 3549 ft 170 kts 102°
2026-04-27 15:34 16.29951 -61.71716 3376 ft 166 kts 102°
2026-04-27 15:34 16.29737 -61.70556 3170 ft 162 kts 102°
2026-04-27 15:34 16.29528 -61.69420 2953 ft 159 kts 101°
2026-04-27 15:35 16.29321 -61.68300 2738 ft 157 kts 101°
2026-04-27 15:35 16.29118 -61.67196 2531 ft 154 kts 102°
2026-04-27 15:35 16.28920 -61.66122 2316 ft 148 kts 102°
2026-04-27 15:35 16.28728 -61.65082 2116 ft 143 kts 101°
2026-04-27 15:36 16.28542 -61.64074 1923 ft 141 kts 102°
2026-04-27 15:36 16.28360 -61.63087 1731 ft 137 kts 102°
2026-04-27 15:36 16.28184 -61.62134 1550 ft 134 kts 102°
2026-04-27 15:36 16.28009 -61.61173 1345 ft 137 kts 101°
2026-04-27 15:37 16.27841 -61.60209 1142 ft 137 kts 102°
2026-04-27 15:37 16.27664 -61.59237 936 ft 135 kts 103°
2026-04-27 15:37 16.27447 -61.58276 821 ft 135 kts 101°
2026-04-27 15:37 16.27301 -61.57303 630 ft 137 kts 101°
2026-04-27 15:38 16.27140 -61.56343 471 ft 135 kts 105°
2026-04-27 15:38 16.26933 -61.55361 284 ft 143 kts 102°
2026-04-27 15:38 16.26757 -61.54369 65 ft 133 kts 104°
2026-04-27 15:38 16.26591 -61.53514 24 ft 102 kts 100°
2026-04-27 15:39 16.26489 -61.52962 21 ft 53 kts 100°
2026-04-27 15:39 16.26444 -61.52722 21 ft 28 kts 102°
2026-04-27 15:39 16.26409 -61.52528 20 ft 27 kts 101°
2026-04-27 15:39 16.26376 -61.52347 26 ft 24 kts 100°
2026-04-27 15:40 16.26399 -61.52234 27 ft 13 kts 23°
2026-04-27 15:40 16.26486 -61.52218 28 ft 13 kts 11°
2026-04-27 15:40 16.26587 -61.52199 21 ft 15 kts 10°
2026-04-27 15:40 16.26688 -61.52185 21 ft 14 kts 349°
2026-04-27 15:41 16.26735 -61.52260 21 ft 13 kts 281°
2026-04-27 15:41 16.26752 -61.52353 24 ft 13 kts 281°
2026-04-27 15:41 16.26769 -61.52445 21 ft 13 kts 281°
2026-04-27 15:41 16.26785 -61.52533 21 ft 12 kts 281°
2026-04-27 15:42 16.26800 -61.52617 21 ft 11 kts 281°
2026-04-27 15:42 16.26821 -61.52691 21 ft 10 kts 318°
2026-04-27 15:42 16.26876 -61.52681 21 ft 8 kts 11°
2026-04-27 15:42 16.26913 -61.52673 21 ft 2 kts 10°
2026-04-27 15:43 16.26917 -61.52672 21 ft 0 kts 10°